DLH648 UAAA-UACC

Flight info

Callsign DLH648
Flight time N/A
Altitude 40000
Route ETEDA1J ETEDA W333 BANOS
Aircraft A333/H-SDE3GHIJ2J3J5M1RVWXY/LB2D1

Departure

Time 2026-04-28 18:31
Airport Almaty International Airport (UAAA)

Arrival

Time N/A
Airport Nursultan Nazarbayev International Airport (UACC)
Time Latitude Longitude Altitude Speed Heading
2026-04-28 18:17 43.34962 77.01301 2223 ft 0 kts 246°
2026-04-28 18:20 43.34970 77.01325 2226 ft 4 kts 241°
2026-04-28 18:21 43.34985 77.01356 2226 ft 4 kts 232°
2026-04-28 18:21 43.35003 77.01384 2225 ft 4 kts 219°
2026-04-28 18:21 43.35024 77.01402 2231 ft 4 kts 188°
2026-04-28 18:21 43.35039 77.01402 2233 ft 1 kts 154°
2026-04-28 18:26 43.34953 77.01452 2223 ft 15 kts 157°
2026-04-28 18:26 43.34851 77.01511 2226 ft 16 kts 154°
2026-04-28 18:26 43.34817 77.01609 2225 ft 12 kts 100°
2026-04-28 18:26 43.34813 77.01731 2232 ft 14 kts 90°
2026-04-28 18:27 43.34805 77.01883 2222 ft 20 kts 94°
2026-04-28 18:27 43.34791 77.02101 2230 ft 25 kts 94°
2026-04-28 18:27 43.34779 77.02345 2232 ft 26 kts 98°
2026-04-28 18:27 43.34784 77.02590 2227 ft 26 kts 70°
2026-04-28 18:28 43.34888 77.02819 2225 ft 34 kts 56°
2026-04-28 18:28 43.35050 77.03151 2223 ft 50 kts 56°
2026-04-28 18:28 43.35276 77.03607 2223 ft 67 kts 56°
2026-04-28 18:28 43.35548 77.04159 2224 ft 74 kts 55°
2026-04-28 18:29 43.35851 77.04767 2225 ft 74 kts 56°
2026-04-28 18:29 43.36117 77.05303 2225 ft 64 kts 56°
2026-04-28 18:29 43.36365 77.05802 2227 ft 60 kts 56°
2026-04-28 18:29 43.36500 77.06074 2225 ft 10 kts 57°
2026-04-28 18:30 43.36482 77.06155 2220 ft 12 kts 139°
2026-04-28 18:30 43.36456 77.06177 2226 ft 15 kts 154°
2026-04-28 18:30 43.36274 77.06081 2230 ft 37 kts 234°
2026-04-28 18:30 43.35994 77.05518 2235 ft 107 kts 236°
2026-04-28 18:31 43.35445 77.04405 2232 ft 172 kts 236°
2026-04-28 18:31 43.34724 77.02940 2869 ft 186 kts 236°
2026-04-28 18:31 43.34050 77.01510 3967 ft 183 kts 238°
2026-04-28 18:31 43.33328 76.99944 4608 ft 204 kts 238°
2026-04-28 18:32 43.32512 76.98192 5095 ft 232 kts 237°
2026-04-28 18:32 43.31591 76.96230 5535 ft 257 kts 239°
2026-04-28 18:32 43.30899 76.93931 6335 ft 266 kts 260°
2026-04-28 18:32 43.30996 76.91394 7338 ft 269 kts 289°
2026-04-28 18:33 43.31983 76.89254 8410 ft 270 kts 318°
2026-04-28 18:33 43.33587 76.87878 9357 ft 272 kts 335°
2026-04-28 18:33 43.35353 76.86869 10301 ft 277 kts 338°
2026-04-28 18:33 43.37138 76.85909 11254 ft 279 kts 338°
2026-04-28 18:34 43.38952 76.84921 12224 ft 281 kts 338°
2026-04-28 18:34 43.40761 76.83916 13161 ft 284 kts 337°
2026-04-28 18:34 43.42612 76.82875 14082 ft 288 kts 337°
2026-04-28 18:34 43.44455 76.81742 14910 ft 291 kts 329°
2026-04-28 18:35 43.45994 76.79922 15667 ft 296 kts 306°
2026-04-28 18:35 43.47010 76.77388 16031 ft 317 kts 294°
2026-04-28 18:35 43.47868 76.74483 16358 ft 337 kts 291°
2026-04-28 18:35 43.48735 76.71415 16925 ft 349 kts 291°
2026-04-28 18:36 43.49633 76.68271 17715 ft 353 kts 292°
2026-04-28 18:36 43.50549 76.65103 18511 ft 357 kts 292°
2026-04-28 18:36 43.51484 76.61966 19223 ft 360 kts 295°
2026-04-28 18:36 43.52784 76.58999 19951 ft 363 kts 309°
2026-04-28 18:37 43.54675 76.56683 20682 ft 367 kts 327°
2026-04-28 18:37 43.57035 76.55277 21391 ft 372 kts 342°
2026-04-28 18:37 43.59538 76.54404 22089 ft 375 kts 345°
2026-04-28 18:37 43.62080 76.53619 22768 ft 378 kts 345°
2026-04-28 18:38 43.64654 76.52827 23520 ft 379 kts 345°
2026-04-28 18:38 43.67262 76.52013 24108 ft 382 kts 345°
2026-04-28 18:38 43.69849 76.51195 24604 ft 386 kts 345°
2026-04-28 18:38 43.72489 76.50353 25085 ft 390 kts 344°
2026-04-28 18:39 43.75127 76.49508 25587 ft 394 kts 345°
2026-04-28 18:39 43.77814 76.48645 26082 ft 397 kts 344°
2026-04-28 18:39 43.80534 76.47770 26585 ft 401 kts 344°
2026-04-28 18:39 43.83241 76.46898 27102 ft 403 kts 344°
2026-04-28 18:40 43.85981 76.46014 27575 ft 407 kts 344°
2026-04-28 18:40 43.88752 76.45119 28044 ft 410 kts 344°
2026-04-28 18:40 43.91547 76.44215 28510 ft 413 kts 343°
2026-04-28 18:40 43.94325 76.43315 28969 ft 417 kts 343°
2026-04-28 18:41 43.97187 76.42388 29437 ft 420 kts 343°
2026-04-28 18:41 44.00039 76.41463 29927 ft 423 kts 343°
2026-04-28 18:41 44.02890 76.40539 30373 ft 425 kts 343°
2026-04-28 18:41 44.05843 76.39874 30746 ft 433 kts 352°
2026-04-28 18:42 44.08893 76.40146 31105 ft 446 kts
2026-04-28 18:42 44.11899 76.41412 31457 ft 455 kts 15°
2026-04-28 18:42 44.14850 76.42990 31813 ft 459 kts 17°
2026-04-28 18:42 44.17827 76.44634 32280 ft 460 kts 17°
2026-04-28 18:43 44.20810 76.46279 32810 ft 459 kts 16°
2026-04-28 18:43 44.23757 76.47897 33401 ft 456 kts 16°
2026-04-28 18:43 44.26718 76.49508 33883 ft 455 kts 15°
2026-04-28 18:43 44.29705 76.50803 34273 ft 450 kts
2026-04-28 18:44 44.32780 76.51437 34677 ft 442 kts 357°
2026-04-28 18:44 44.38753 76.50525 35526 ft 425 kts 338°
2026-04-28 18:44 44.41542 76.49213 35937 ft 421 kts 334°
2026-04-28 18:45 44.44238 76.47736 36320 ft 420 kts 333°
2026-04-28 18:45 44.46924 76.46153 36689 ft 419 kts 332°
2026-04-28 18:45 44.49628 76.44516 37062 ft 419 kts 332°
2026-04-28 18:45 44.52292 76.42899 37431 ft 418 kts 332°
2026-04-28 18:46 44.54937 76.41306 37799 ft 418 kts 332°
2026-04-28 18:46 44.57626 76.39700 38185 ft 417 kts 332°
2026-04-28 18:46 44.60286 76.38123 38510 ft 418 kts 333°
2026-04-28 18:46 44.62066 76.37072 38723 ft 418 kts 333°
2026-04-28 18:47 44.65633 76.34971 39074 ft 418 kts 333°
2026-04-28 18:47 44.68316 76.33392 39330 ft 418 kts 333°
2026-04-28 18:47 44.70094 76.32345 39496 ft 418 kts 333°
2026-04-28 18:47 44.72783 76.30759 39734 ft 418 kts 333°
2026-04-28 18:48 44.76351 76.28651 40037 ft 419 kts 333°
2026-04-28 18:48 44.78148 76.27587 40073 ft 423 kts 333°
2026-04-28 18:48 44.83667 76.24310 40080 ft 436 kts 333°
2026-04-28 18:49 44.88330 76.21541 40084 ft 439 kts 333°
2026-04-28 18:49 44.94899 76.17639 40095 ft 438 kts 333°
2026-04-28 18:50 45.00505 76.14298 40090 ft 438 kts 333°
2026-04-28 18:50 45.06117 76.10944 40092 ft 439 kts 333°
2026-04-28 18:51 45.11732 76.07582 40110 ft 439 kts 333°
2026-04-28 18:51 45.17364 76.04201 40097 ft 440 kts 333°
2026-04-28 18:52 45.22982 76.00821 40099 ft 440 kts 333°
2026-04-28 18:52 45.28627 75.97419 40099 ft 440 kts 333°
2026-04-28 18:53 45.34273 75.94008 40102 ft 440 kts 333°
2026-04-28 18:53 45.39888 75.90609 40104 ft 440 kts 333°
2026-04-28 18:54 45.45551 75.87173 40108 ft 440 kts 333°
2026-04-28 18:54 45.51157 75.83764 40113 ft 440 kts 333°
2026-04-28 18:55 45.56813 75.80317 40110 ft 440 kts 333°
2026-04-28 18:55 45.62437 75.76882 40112 ft 440 kts 333°
2026-04-28 18:56 45.68044 75.73451 40126 ft 440 kts 333°
2026-04-28 18:56 45.73670 75.70001 40118 ft 440 kts 333°
2026-04-28 18:57 45.79317 75.66531 40114 ft 440 kts 333°
2026-04-28 18:57 45.84949 75.63064 40119 ft 440 kts 333°
2026-04-28 18:58 45.90568 75.59596 40129 ft 440 kts 333°
2026-04-28 18:58 45.96187 75.56122 40128 ft 440 kts 333°
2026-04-28 18:59 46.01785 75.52652 40129 ft 440 kts 333°
2026-04-28 18:59 46.07397 75.49166 40123 ft 439 kts 334°
2026-04-28 19:00 46.12991 75.45684 40134 ft 437 kts 334°
2026-04-28 19:00 46.18567 75.42206 40124 ft 437 kts 334°
2026-04-28 19:01 46.24143 75.38725 40125 ft 437 kts 334°
2026-04-28 19:01 46.29715 75.35260 40138 ft 437 kts 334°
2026-04-28 19:02 46.35326 75.31770 40137 ft 437 kts 334°
2026-04-28 19:02 46.40883 75.28305 40133 ft 437 kts 334°
2026-04-28 19:03 46.46481 75.24803 40133 ft 437 kts 334°
2026-04-28 19:03 46.52051 75.21312 40139 ft 437 kts 334°
2026-04-28 19:04 46.57644 75.17798 40142 ft 437 kts 334°
2026-04-28 19:04 46.63236 75.14277 40150 ft 437 kts 334°
2026-04-28 19:05 46.68787 75.10773 40146 ft 437 kts 334°
2026-04-28 19:05 46.74364 75.07246 40152 ft 437 kts 334°
2026-04-28 19:06 46.79022 75.04294 40152 ft 437 kts 334°
2026-04-28 19:06 46.85546 75.00149 40160 ft 437 kts 334°
2026-04-28 19:07 46.91164 74.96726 40163 ft 438 kts 336°
2026-04-28 19:07 46.96838 74.93606 40162 ft 438 kts 337°
2026-04-28 19:08 47.02586 74.90497 40172 ft 438 kts 337°
2026-04-28 19:08 47.08282 74.87380 40172 ft 438 kts 337°
2026-04-28 19:09 47.14011 74.84211 40178 ft 438 kts 337°
2026-04-28 19:09 47.19710 74.81045 40179 ft 438 kts 337°
2026-04-28 19:10 47.25404 74.77874 40190 ft 438 kts 337°
2026-04-28 19:10 47.31097 74.74697 40189 ft 438 kts 337°
2026-04-28 19:11 47.36792 74.71513 40191 ft 438 kts 337°
2026-04-28 19:11 47.42511 74.68308 40203 ft 438 kts 337°
2026-04-28 19:12 47.48201 74.65112 40202 ft 438 kts 337°
2026-04-28 19:12 47.53876 74.61918 40206 ft 438 kts 337°
2026-04-28 19:13 47.59606 74.58704 40205 ft 438 kts 337°
2026-04-28 19:13 47.65281 74.55523 40214 ft 438 kts 337°
2026-04-28 19:14 47.71017 74.52301 40221 ft 438 kts 337°